This is the latest recevied weather packets stored in our database for station/object IZ6UQU-13. If no packets are shown the sender has not sent any weather packets the latest 10 day(s).
| Time | Temp. | Humidity | Pressure | Rain* | Wind** | Luminosity | Snow |
|---|---|---|---|---|---|---|---|
| 1777902609 | 20° C | 56% | 958.6 hPa | 0 mm | - | - | - |
| 1777902309 | 20° C | 55% | 958.6 hPa | 0 mm | - | - | - |
| 1777902009 | 20.56° C | 56% | 958.6 hPa | 0 mm | - | - | - |
| 1777901709 | 20.56° C | 55% | 958.7 hPa | 0 mm | - | - | - |
| 1777901409 | 20.56° C | 53% | 958.6 hPa | 0 mm | - | - | - |
| 1777901109 | 21.11° C | 54% | 958.7 hPa | 0 mm | - | - | - |
| 1777900808 | 21.11° C | 54% | 958.7 hPa | 0 mm | - | - | - |
| 1777900509 | 21.11° C | 56% | 958.8 hPa | 0 mm | - | - | - |
| 1777900209 | 21.11° C | 55% | 958.8 hPa | 0 mm | - | - | - |
| 1777899909 | 21.11° C | 52% | 958.8 hPa | 0 mm | - | - | - |
| 1777899609 | 21.11° C | 55% | 958.9 hPa | 0 mm | - | - | - |
| 1777899309 | 21.11° C | 54% | 958.9 hPa | 0 mm | - | - | - |
| 1777899008 | 21.11° C | 54% | 959 hPa | 0 mm | - | - | - |
| 1777898709 | 21.11° C | 53% | 959 hPa | 0 mm | - | - | - |
| 1777898409 | 21.11° C | 55% | 959 hPa | 0 mm | - | - | - |
| 1777898109 | 21.11° C | 53% | 959 hPa | 0 mm | - | - | - |
| 1777897809 | 21.11° C | 52% | 959 hPa | 0 mm | - | - | - |
| 1777897508 | 21.11° C | 50% | 959 hPa | 0 mm | - | - | - |
| 1777897209 | 21.11° C | 48% | 959 hPa | 0 mm | - | - | - |
| 1777896909 | 21.67° C | 48% | 959.1 hPa | 0 mm | - | - | - |
| 1777896610 | 21.11° C | 49% | 959.1 hPa | 0 mm | - | - | - |
| 1777896309 | 20.56° C | 49% | 959.2 hPa | 0 mm | - | - | - |
| 1777896009 | 21.11° C | 50% | 959.3 hPa | 0 mm | - | - | - |
| 1777895709 | 20.56° C | 50% | 959.3 hPa | 0 mm | - | - | - |
| 1777895409 | 21.11° C | 50% | 959.3 hPa | 0 mm | - | - | - |
* Rain latest hour (hover to see other rain measurements)
** Current wind speed in m/s (hover to see current wind gust speed)